Theta_e
328 329 329 324 323 323 325 325 325 326 326 324 323 324 326 327 328 330 332 335 337 340 340 339 340 339 336 336 335 333 331 331 332 331 331 331 331 330 329 330 329 328 327
324 327 327 326 320 321 323 324 324 325 326 327 328 327 328 327 330 332 331 334 338 340 341 340 339 339 339 337 333 333 332 332 331 330 326 324 326 328 332 329 329 329 329
322 324 324 326 323 320 321 324 324 325 327 328 326 328 329 329 329 330 331 333 338 340 341 342 342 340 339 335 333 332 331 328 330 330 327 321 318 323 329 331 331 331 329
320 321 322 322 324 322 322 323 325 325 327 328 328 328 328 326 329 331 333 334 338 340 341 342 342 339 338 335 335 335 333 331 327 329 329 327 325 323 322 330 330 333 331
320 320 320 321 323 323 321 322 324 325 327 328 329 328 328 330 329 330 330 333 335 338 342 343 341 340 338 336 336 337 334 333 330 328 328 327 326 326 321 320 324 329 331
327 328 329 328 321 321 321 322 322 325 327 328 328 328 328 329 329 332 332 332 334 336 340 340 339 338 337 336 336 336 336 334 333 331 330 327 323 322 322 320 322 322 325
324 325 325 328 331 330 326 324 323 322 326 328 329 331 330 333 330 333 335 334 334 335 336 337 338 337 337 337 337 336 336 335 333 331 330 330 328 326 323 321 319 319 319
317 319 321 325 331 331 333 334 331 323 327 329 331 334 335 328 327 327 326 327 328 335 337 338 338 337 338 338 337 336 334 333 332 331 330 329 327 325 323 320 318 311 313
317 319 324 329 330 331 332 334 334 330 329 333 336 332 329 328 328 326 327 327 330 332 336 338 336 336 335 334 334 333 333 333 330 328 323 318 315 316 316 317 316 313 308
320 324 327 329 332 333 334 334 334 335 337 336 332 330 329 329 329 330 328 327 331 331 332 334 333 333 334 332 332 329 327 325 324 322 318 315 315 315 314 313 315 314 312
325 327 328 330 330 331 333 333 332 332 332 332 332 332 331 331 330 328 327 329 331 332 334 333 331 330 330 330 328 321 321 319 318 318 316 315 314 312 314 314 313 312 312
330 330 329 328 327 328 330 330 330 330 330 330 329 329 331 330 328 327 327 333 331 331 330 328 325 323 322 322 320 318 317 316 314 315 314 312 313 313 313 313 312 312 311
327 328 327 328 328 328 329 329 329 329 329 329 328 328 329 329 328 328 329 328 328 327 325 323 321 318 318 317 317 316 315 315 314 315 315 314 315 313 312 312 311 311 312
325 327 327 327 327 324 324 326 327 328 329 328 327 326 325 324 325 325 325 323 319 315 314 314 315 315 314 314 313 312 312 311 311 312 313 313 313 312 312 311 311 310 309
322 324 325 327 325 322 323 324 324 325 326 324 323 322 323 323 322 321 320 317 315 313 312 312 311 311 311 310 310 311 310 310 309 310 310 313 316 316 315 311 309 308 306
320 322 325 325 323 322 321 323 324 324 325 322 321 321 320 320 319 317 317 313 312 312 311 309 308 308 306 305 306 305 305 306 307 306 308 309 310 310 311 311 311 310 307
322 321 322 322 321 320 320 319 320 321 320 320 320 320 320 319 320 318 315 312 309 308 306 305 305 303 303 301 302 302 302 303 304 305 305 306 306 304 303 303 303 303 303
321 322 322 321 320 320 320 319 319 318 317 316 318 318 318 319 318 316 313 309 308 306 304 303 303 303 302 300 300 300 301 301 302 302 303 303 304 303 303 302 302 302 303
321 322 323 320 319 318 317 316 314 315 314 315 316 317 317 314 313 311 310 309 308 305 303 302 302 302 301 299 299 301 302 301 301 301 303 302 303 300 299 302 301 302 303
321 323 322 320 318 317 318 316 315 315 314 316 316 315 314 313 312 312 310 310 308 304 303 302 302 302 302 298 298 300 301 300 300 301 301 300 300 298 297 302 300 299 300
322 323 321 319 317 318 318 316 315 314 316 317 315 314 312 312 311 309 309 308 305 303 302 301 301 300 300 301 297 297 301 299 299 299 300 301 297 296 296 297 301 299 300
317 318 316 316 317 318 317 316 315 317 318 317 315 313 312 311 309 308 307 306 303 302 301 300 299 298 299 298 297 296 297 299 299 299 299 300 295 295 296 299 296 297 298
316 317 315 315 316 317 317 312 315 317 316 314 312 310 310 308 307 306 305 303 302 302 301 297 297 297 297 298 296 295 295 297 298 300 299 296 295 295 297 297 297 297 298
316 317 315 314 314 316 316 317 318 317 314 312 310 309 308 305 304 304 304 304 303 301 298 297 296 296 297 298 298 299 300 298 299 299 300 298 296 296 297 298 299 299 298
313 313 313 312 312 314 316 317 316 315 314 311 310 307 305 302 300 298 299 303 302 301 301 300 298 297 297 298 295 296 300 299 297 298 299 299 298 298 297 298 298 298 298
311 309 309 309 310 311 312 314 314 313 312 310 308 305 304 303 300 299 299 295 295 294 294 295 298 299 295 294 293 293 293 292 292 298 298 297 296 296 295 296 296 296 296
Wind_Speed
13 10 9 11 11 10 12 13 12 12 8 5 4 3 8 6 6 7 9 9 9 10 9 7 6 6 7 7 5 3 6 4 3 1 2 2 6 7 5 5 7 9 9
10 9 8 7 9 12 13 11 13 11 11 8 7 4 5 4 4 4 6 9 10 8 9 9 9 8 5 2 2 5 3 2 3 2 2 3 3 2 3 4 5 8 4
9 9 9 9 6 8 7 9 11 12 13 14 5 3 3 2 3 4 4 7 7 7 8 9 8 4 3 0 2 3 3 2 1 5 3 1 3 3 1 2 3 4 3
5 6 8 9 10 10 9 10 8 10 12 10 8 11 10 8 6 7 6 4 5 6 8 8 4 4 3 4 4 5 6 5 6 2 4 3 3 2 4 1 2 1 4
8 7 9 11 14 9 9 10 11 10 9 11 12 9 8 1 2 3 3 2 4 6 7 5 7 7 7 8 9 6 7 7 4 7 4 3 3 4 3 3 2 1 1
8 8 7 8 7 6 7 8 11 10 7 7 7 5 5 5 5 4 3 2 3 3 5 3 6 8 8 7 5 7 9 9 8 9 9 5 4 3 3 4 2 3 1
12 12 14 13 12 12 9 3 3 4 7 9 9 9 9 12 11 7 3 3 1 2 4 1 3 7 5 1 2 5 7 10 9 9 6 5 5 4 3 3 2 3 0
9 13 12 9 8 10 10 8 3 6 8 7 8 10 11 8 8 9 6 5 4 3 4 4 9 6 6 4 3 2 2 3 1 2 1 2 2 3 2 0 3 1 1
13 11 10 13 13 13 12 12 8 2 6 9 10 10 10 10 6 7 6 6 8 6 1 5 7 4 5 4 2 1 1 1 3 2 7 6 4 4 3 2 2 2 2
12 11 13 14 13 14 13 11 11 9 9 11 10 10 10 8 5 3 5 3 1 3 0 2 4 1 5 1 2 4 5 6 6 5 9 6 3 3 3 2 2 0 3
12 14 14 13 13 11 11 11 11 10 8 8 8 7 6 4 3 3 2 1 2 2 1 5 6 5 7 6 7 7 6 7 6 3 6 5 4 3 2 2 2 2 2
10 9 10 9 11 11 11 11 11 10 10 9 8 8 5 5 4 1 3 3 10 11 11 9 10 8 7 7 7 6 5 4 7 3 4 5 3 3 1 1 3 1 1
8 7 7 7 7 8 8 9 8 8 7 7 8 7 7 6 6 8 11 13 13 11 10 9 8 8 8 9 9 8 7 7 6 5 5 4 4 3 2 2 1 0 0
7 7 5 5 7 8 8 7 7 7 6 8 9 10 9 9 9 11 12 12 10 11 10 9 10 10 9 10 9 7 7 7 7 7 6 5 4 3 3 3 4 3 2
7 5 5 5 5 5 6 6 6 7 6 8 9 8 8 9 11 11 10 11 10 11 10 11 10 9 9 7 8 8 8 6 6 7 7 8 12 15 8 4 4 3 2
8 7 6 6 6 5 5 6 6 6 7 8 8 9 10 10 8 9 9 10 11 12 11 10 10 11 8 11 13 9 7 8 8 7 7 7 11 11 12 11 10 6 3
6 6 5 7 6 6 5 7 7 6 7 9 8 8 7 8 8 8 10 11 10 10 10 9 9 10 7 11 11 12 7 8 8 9 8 7 7 10 9 11 10 10 9
7 5 4 5 6 4 5 7 7 6 6 7 6 6 6 7 8 10 10 10 8 8 8 8 8 8 7 11 12 12 7 8 8 9 8 6 6 7 7 6 8 8 6
7 2 4 5 6 4 3 6 6 6 6 5 5 5 7 7 8 9 8 7 9 8 8 6 7 7 5 8 10 8 7 8 8 7 8 7 7 6 6 7 7 8 8
6 1 5 4 6 4 5 7 7 6 4 4 5 6 7 7 7 7 7 5 8 8 6 7 5 7 6 9 8 6 4 6 4 5 7 10 8 9 8 7 6 8 9
6 6 6 6 6 6 7 9 8 6 4 5 7 8 7 6 6 6 6 7 7 8 6 7 6 6 5 5 7 5 3 2 3 3 4 4 8 6 6 4 5 6 8
8 10 9 8 7 6 10 8 12 7 7 7 6 5 5 6 5 8 6 6 7 7 5 5 4 3 3 4 5 5 3 2 1 1 1 2 3 7 6 4 7 11 10
6 6 8 7 5 6 11 10 4 5 5 6 4 6 6 6 5 7 5 5 4 4 4 4 3 1 2 2 5 7 6 3 2 1 2 2 7 8 6 9 9 9 8
6 5 6 7 7 6 6 5 4 3 5 6 5 4 6 6 4 4 3 4 4 3 4 3 2 1 1 2 3 3 1 2 3 2 2 4 4 4 4 6 7 7 7
4 5 4 4 4 4 4 2 1 1 1 3 3 5 5 5 5 5 2 2 1 1 3 2 3 1 1 2 5 4 4 3 2 2 2 3 4 6 6 6 7 8 8
3 5 5 6 3 4 2 1 2 0 4 4 3 4 4 3 4 4 3 5 5 3 4 4 3 1 5 7 8 9 3 2 4 3 2 3 4 5 5 6 7 7 9
Wind_Direction
235 235 211 207 217 209 204 201 183 199 173 166 168 203 223 225 231 226 222 213 214 211 204 213 219 200 211 211 219 199 188 227 202 190 291 252 239 230 220 220 213 212 215
235 241 234 217 200 216 212 200 196 188 191 194 202 201 191 214 239 229 238 229 220 210 208 209 216 207 208 177 9 328 311 75 97 13 25 307 306 273 230 205 227 224 195
232 238 241 248 214 221 223 221 207 194 188 193 153 125 94 107 151 205 214 220 216 220 222 217 221 179 154 251 122 149 271 251 220 136 159 259 263 326 318 275 209 218 195
253 234 227 235 231 220 197 205 206 203 199 184 189 202 211 213 218 217 219 195 202 222 224 228 196 159 166 190 167 167 207 193 212 153 186 177 163 264 314 3 64 188 190
219 231 232 229 231 202 204 192 190 201 202 195 197 194 212 296 36 15 33 328 258 229 222 187 169 176 182 177 179 199 202 214 212 200 155 175 183 187 201 277 297 22 115
16 16 353 349 311 250 209 194 195 206 174 170 185 157 97 95 84 47 30 353 321 338 311 218 191 207 218 180 174 176 206 205 206 197 200 181 167 179 170 220 253 246 204
26 28 17 12 5 12 10 6 166 187 173 171 166 140 127 109 93 81 65 104 118 260 231 257 284 283 311 275 195 202 224 225 214 190 197 199 189 158 147 156 202 227 70
10 27 15 9 15 18 20 8 346 180 175 152 123 126 122 120 120 120 127 105 57 305 227 170 256 244 265 249 220 169 188 169 268 80 219 172 135 118 107 176 168 46 321
9 12 8 29 32 34 32 22 0 137 122 119 126 121 128 130 132 139 155 153 158 205 140 179 213 39 298 315 4 62 150 144 101 70 74 73 56 54 76 176 60 205 126
11 18 27 30 26 25 26 20 31 57 95 116 118 131 130 128 130 144 196 200 166 147 207 168 115 165 258 262 53 60 62 97 82 106 112 107 128 139 185 143 154 145 139
19 27 28 23 27 22 30 29 33 45 64 86 93 66 56 75 106 200 224 316 240 37 201 74 68 75 80 82 74 77 75 90 98 101 124 139 148 162 132 142 144 120 141
35 39 41 36 45 33 36 32 27 33 28 32 31 24 39 89 130 109 247 213 68 63 65 56 53 53 52 60 65 80 75 80 93 92 91 99 101 119 80 15 57 19 227
47 52 50 45 50 42 47 46 37 39 39 44 52 38 55 70 83 81 73 70 78 68 54 68 58 52 54 59 61 60 61 62 54 50 50 46 44 37 28 5 4 349 265
45 50 45 58 54 54 45 45 40 40 45 53 52 54 59 69 71 72 74 70 69 73 63 53 57 57 59 59 59 63 62 51 46 38 34 30 15 345 339 10 23 43 46
24 31 47 64 81 45 45 59 45 55 68 71 72 75 74 65 70 66 66 69 70 71 69 68 56 59 61 57 59 55 56 50 48 39 26 26 35 43 50 46 38 49 43
10 3 5 46 40 43 62 67 64 46 49 73 85 76 78 76 68 72 70 70 59 62 67 64 66 60 62 61 64 66 60 52 49 37 30 38 42 42 44 46 49 49 23
4 14 13 56 37 20 48 65 48 47 71 86 85 79 68 76 77 82 79 74 73 78 72 69 76 70 65 64 65 65 60 56 46 39 29 33 32 32 27 22 31 23 11
5 29 59 66 57 30 50 74 67 71 68 74 79 74 67 68 72 82 84 85 86 86 88 84 79 75 50 55 56 60 61 59 50 43 30 28 24 22 18 26 23 12 7
330 34 73 79 85 67 82 75 70 66 59 68 67 85 90 84 91 92 95 93 97 85 78 79 79 77 53 61 64 70 59 51 41 38 37 45 44 11 22 37 17 1 350
309 284 88 87 72 31 68 75 77 67 75 72 80 78 83 85 85 92 93 86 95 94 89 76 64 76 60 43 56 77 77 62 41 33 29 22 27 27 37 47 27 9 340
6 67 81 82 81 52 64 75 83 75 80 59 65 68 76 88 91 86 91 94 95 94 84 79 53 59 53 39 47 68 86 92 65 45 28 18 5 28 47 59 25 358 324
61 73 73 65 58 69 84 70 69 47 57 80 84 75 75 101 97 99 94 102 112 103 92 94 85 52 32 25 23 33 43 168 112 73 15 355 15 31 22 17 350 356 350
70 72 84 74 54 86 98 94 77 78 68 66 74 96 89 86 89 110 114 106 111 119 118 117 109 74 313 323 350 341 325 297 199 183 304 324 39 19 16 1 353 350 350
43 48 84 84 73 68 103 107 100 100 111 117 125 121 99 96 81 80 96 118 127 120 128 129 142 217 316 339 337 324 294 85 73 12 339 40 46 47 9 359 346 345 346
55 62 72 83 70 77 98 91 152 221 236 131 131 106 104 101 92 79 71 113 124 156 162 184 182 137 25 282 267 308 357 349 360 334 28 27 23 13 1 352 345 348 353
95 81 81 80 78 102 87 272 9 110 151 142 135 128 115 113 100 98 96 56 65 101 183 160 175 215 250 287 3 349 345 95 143 63 50 43 29 12 350 349 343 346 348